Location: Marcé
(47.5801°N, 0.3280°W)
Time: 08:41:32
(UTC+01:00)

BlueWalker 3 - Pass Details

Date: 02 December 2022
Orbit: 499 x 517 km, 53.2° (Epoch: 29 January)

Event Time Altitude Azimuth Distance (km) Brightness Sun altitude
Rises 18:31:19 0° 278° (W) 2,632 6.8 -12.9°
Reaches altitude 10° 18:33:40 10° 288° (WNW) 1,741 5.5 -13.3°
Maximum altitude 18:37:19 35° 356° (N) 835 2.9 -13.9°
Enters shadow 18:39:12 22° 47° (NE) 1,145 3.2 -14.2°
